Change the Weather History Date:

Wednesday, July 17, 2013

  Actual Average Record
Temperature  
Mean Temperature 81 °F -  
Max Temperature 93 °F 91 °F 93 °F (2012)
Min Temperature 69 °F 69 °F 64 °F (2011)
Cooling Degree Days 16    
Growing Degree Days 31 (Base 50)    
Moisture  
Dew Point 74 °F    
Average Humidity 88    
Maximum Humidity 100    
Minimum Humidity 56    
Precipitation  
Precipitation 1.02 in - - ()
Sea Level Pressure  
Sea Level Pressure 30.20 in    
Wind  
Wind Speed 1 mph (SE)    
Max Wind Speed 15 mph    
Max Gust Speed 25 mph    
Visibility 9 miles    
Events Rain    
Averages and records for this station are not official NWS values.
T = Trace of Precipitation, MM = Missing Value Source: NWS Daily Summary

Daily Weather History Graph

Daily Weather History Graph

Search for Another Location

Airport or City:

Trip Planner

Search our weather history database for the weather conditions in past years. The results will help you decide how hot, cold, wet, or windy it might be!

Date:

Astronomy

Jul. 17, 2013 Rise Set
Actual Time 6:22 AM EDT 8:32 PM EDT
Civil Twilight 5:54 AM EDT 9:00 PM EDT
Nautical Twilight 5:19 AM EDT 9:35 PM EDT
Astronomical Twilight 4:42 AM EDT 10:12 PM EDT
Moon 3:23 PM EDT (7/17) 1:23 AM EDT (7/17)
Length of Visible Light 15h 06m
Length of Day
14h 09m
Waxing Gibbous, 67% of the Moon is Illuminated
Jul 17
Waxing Gibbous
Jul 22
Full
Jul 29
Last Quarter
Aug 6
New
Aug 14
First Quarter

Hourly Weather History & Observations

Time (EDT) Temp. Heat Index Dew Point Humidity Pressure Visibility Wind Dir Wind Speed Gust Speed Precip Events Conditions
12:15 AM 75.2 °F - 75.2 °F 100% 30.24 in 10.0 mi Calm Calm - N/A   Clear
12:35 AM 75.2 °F - 75.2 °F 100% 30.23 in 9.0 mi Calm Calm - N/A   Clear
12:55 AM 75.2 °F - 75.2 °F 100% 30.23 in 9.0 mi Calm Calm - N/A   Clear
1:15 AM 75.2 °F - 75.2 °F 100% 30.23 in 10.0 mi Calm Calm - N/A   Clear
1:35 AM 75.2 °F - 75.2 °F 100% 30.23 in 10.0 mi Calm Calm - N/A   Clear
1:55 AM 75.2 °F - 75.2 °F 100% 30.23 in 10.0 mi Calm Calm - N/A   Clear
2:15 AM 75.2 °F - 75.2 °F 100% 30.22 in 10.0 mi Calm Calm - N/A   Clear
2:35 AM 75.2 °F - 75.2 °F 100% 30.22 in 10.0 mi Calm Calm - N/A   Clear
2:55 AM 75.2 °F - 75.2 °F 100% 30.22 in 10.0 mi Calm Calm - N/A   Clear
3:15 AM 75.2 °F - 75.2 °F 100% 30.21 in 10.0 mi Calm Calm - N/A   Clear
3:35 AM 73.4 °F - 73.4 °F 100% 30.22 in 10.0 mi Calm Calm - N/A   Clear
3:55 AM 73.4 °F - 73.4 °F 100% 30.22 in 10.0 mi Calm Calm - N/A   Clear
4:15 AM 73.4 °F - 73.4 °F 100% 30.22 in 10.0 mi Calm Calm - N/A   Clear
4:35 AM 73.4 °F - 73.4 °F 100% 30.22 in 10.0 mi Calm Calm - N/A   Clear
4:55 AM 73.4 °F - 73.4 °F 100% 30.22 in 10.0 mi Calm Calm - N/A   Clear
5:15 AM 73.4 °F - 73.4 °F 100% 30.22 in 10.0 mi Calm Calm - N/A   Clear
5:35 AM 73.4 °F - 73.4 °F 100% 30.22 in 10.0 mi Calm Calm - N/A   Clear
5:55 AM 73.4 °F - 73.4 °F 100% 30.22 in 10.0 mi Calm Calm - N/A   Clear
6:15 AM 73.4 °F - 73.4 °F 100% 30.22 in 10.0 mi Calm Calm - N/A   Clear
6:35 AM 73.4 °F - 73.4 °F 100% 30.22 in 10.0 mi Calm Calm - N/A   Clear
6:55 AM 73.4 °F - 73.4 °F 100% 30.23 in 10.0 mi Calm Calm - N/A   Clear
7:15 AM 73.4 °F - 73.4 °F 100% 30.23 in 10.0 mi Calm Calm - N/A   Clear
7:35 AM 75.2 °F - 75.2 °F 100% 30.23 in 10.0 mi Calm Calm - N/A   Clear
7:55 AM 75.2 °F - 75.2 °F 100% 30.23 in 10.0 mi Calm Calm - N/A   Clear
8:15 AM 77.0 °F - 73.4 °F 89% 30.23 in 10.0 mi Calm Calm - N/A   Clear
8:35 AM 78.8 °F - 75.2 °F 89% 30.24 in 10.0 mi Calm Calm - N/A   Clear
8:55 AM 80.6 °F 86.2 °F 75.2 °F 84% 30.24 in 10.0 mi SSE 3.5 mph - N/A   Clear
9:15 AM 82.4 °F 89.5 °F 75.2 °F 79% 30.24 in 10.0 mi Calm Calm - N/A   Clear
9:35 AM 84.2 °F 92.3 °F 75.2 °F 74% 30.24 in 10.0 mi SSE 4.6 mph - N/A   Clear
9:55 AM 84.2 °F 92.3 °F 75.2 °F 74% 30.24 in 10.0 mi Calm Calm - N/A   Clear
10:15 AM 86.0 °F 95.1 °F 75.2 °F 70% 30.24 in 10.0 mi South 5.8 mph - N/A   Clear
10:35 AM 86.0 °F 95.1 °F 75.2 °F 70% 30.23 in 10.0 mi SSE 3.5 mph - N/A   Clear
10:55 AM 87.8 °F 97.6 °F 75.2 °F 66% 30.23 in 10.0 mi NNE 4.6 mph - N/A   Clear
11:15 AM 87.8 °F 97.6 °F 75.2 °F 66% 30.22 in 10.0 mi Calm Calm - N/A   Clear
11:35 AM 87.8 °F 97.6 °F 75.2 °F 66% 30.22 in 10.0 mi Calm Calm - N/A   Clear
11:55 AM 89.6 °F 99.8 °F 75.2 °F 62% 30.22 in 10.0 mi Calm Calm - N/A   Clear
12:15 PM 89.6 °F 99.8 °F 75.2 °F 62% 30.21 in 10.0 mi Calm Calm - N/A   Clear
12:35 PM 89.6 °F 99.8 °F 75.2 °F 62% 30.21 in 10.0 mi Calm Calm - N/A   Clear
12:55 PM 91.4 °F 102.5 °F 75.2 °F 59% 30.21 in 10.0 mi SE 3.5 mph - N/A   Partly Cloudy
1:15 PM 89.6 °F 102.2 °F 77.0 °F 66% 30.20 in 10.0 mi SSE 3.5 mph - N/A   Partly Cloudy
1:35 PM 91.4 °F 102.5 °F 75.2 °F 59% 30.19 in 10.0 mi Calm Calm - N/A   Clear
1:55 PM 91.4 °F 102.5 °F 75.2 °F 59% 30.17 in 10.0 mi Calm Calm - N/A   Clear
2:15 PM 91.4 °F 102.5 °F 75.2 °F 59% 30.17 in 10.0 mi SSE 3.5 mph - N/A   Clear
2:35 PM 91.4 °F 102.5 °F 75.2 °F 59% 30.17 in 10.0 mi South 3.5 mph - N/A   Partly Cloudy
2:55 PM 93.2 °F 105.0 °F 75.2 °F 56% 30.16 in 10.0 mi South 6.9 mph - N/A   Partly Cloudy
3:15 PM 89.6 °F 99.8 °F 75.2 °F 62% 30.14 in 10.0 mi Calm Calm - N/A   Partly Cloudy
3:35 PM 93.2 °F 105.0 °F 75.2 °F 56% 30.13 in 10.0 mi ESE 6.9 mph - N/A   Clear
3:55 PM 89.6 °F 99.8 °F 75.2 °F 62% 30.12 in 10.0 mi SE 6.9 mph 16.1 mph N/A   Mostly Cloudy
4:15 PM 82.4 °F 87.2 °F 71.6 °F 70% 30.13 in 10.0 mi SSE 12.7 mph 18.4 mph N/A   Mostly Cloudy
4:35 PM 75.2 °F - 75.2 °F 100% 30.16 in 0.8 mi SSE 8.1 mph 24.2 mph 0.51 in Rain Heavy Rain
4:55 PM 73.4 °F - 73.4 °F 100% 30.18 in 4.0 mi ESE 15.0 mph 21.9 mph 0.59 in Rain Heavy Rain
5:15 PM 71.6 °F - 71.6 °F 100% 30.21 in - SSE 11.5 mph - 0.41 in Rain Heavy Rain
5:35 PM 71.6 °F - 71.6 °F 100% 30.22 in - South 10.4 mph - 0.18 in Rain Heavy Rain
5:55 PM 69.8 °F - 69.8 °F 100% 30.17 in 2.0 mi South 15.0 mph 25.3 mph 0.17 in Rain Heavy Rain
6:15 PM 73.4 °F - 69.8 °F 88% 30.14 in 10.0 mi Calm Calm - N/A   Mostly Cloudy
6:35 PM 71.6 °F - 71.6 °F 100% 30.16 in 9.0 mi East 9.2 mph - 0.01 in Rain Light Rain
6:55 PM 71.6 °F - 71.6 °F 100% 30.17 in 6.0 mi ENE 5.8 mph - 0.02 in Rain Light Rain
7:15 PM 71.6 °F - 71.6 °F 100% 30.16 in 10.0 mi Calm Calm - N/A   Partly Cloudy
7:35 PM 71.6 °F - 71.6 °F 100% 30.16 in 10.0 mi Calm Calm - N/A   Clear
7:55 PM 71.6 °F - 71.6 °F 100% 30.15 in 9.0 mi South 4.6 mph - N/A   Clear
8:15 PM 71.6 °F - 71.6 °F 100% 30.15 in 10.0 mi Calm Calm - N/A   Clear
8:35 PM 71.6 °F - 71.6 °F 100% 30.15 in 10.0 mi Calm Calm - N/A   Clear
8:55 PM 71.6 °F - 71.6 °F 100% 30.16 in 10.0 mi Calm Calm - N/A   Clear
9:15 PM 71.6 °F - 71.6 °F 100% 30.15 in 10.0 mi Calm Calm - N/A   Clear
9:35 PM 71.6 °F - 71.6 °F 100% 30.16 in 10.0 mi Calm Calm - N/A   Clear
9:55 PM 71.6 °F - 71.6 °F 100% 30.19 in 8.0 mi East 9.2 mph - N/A   Scattered Clouds
10:15 PM 71.6 °F - 71.6 °F 100% 30.19 in 8.0 mi Calm Calm - N/A   Mostly Cloudy
10:35 PM 71.6 °F - 71.6 °F 100% 30.19 in 8.0 mi Calm Calm - N/A   Scattered Clouds
10:55 PM 71.6 °F - 71.6 °F 100% 30.18 in 8.0 mi Calm Calm - N/A   Partly Cloudy
11:15 PM 71.6 °F - 71.6 °F 100% 30.19 in 6.0 mi Calm Calm - N/A   Partly Cloudy
11:35 PM 71.6 °F - 71.6 °F 100% 30.19 in 5.0 mi Calm Calm - N/A   Clear
11:55 PM 71.6 °F - 71.6 °F 100% 30.20 in 6.0 mi Calm Calm - N/A   Clear